Home > Weather > Kleppe > Past weeks

Flag for Norway Past Weather in Kleppe, Norway — Yesterday and Last 2 Weeks

Now
61 °F

Sunny.


Feels Like: 61 °F
Forecast: 51 / 60 °F
Wind: 6 mph from West

Location: Stavanger / Sola

Current Time: Jun 28, 2016 at 5:19:33 PM

Latest Report: Jun 28, 2016 at 4:00 PM


Visibility: 18 mi

Pressure: 29.92 "Hg

Humidity: 72%

Dew Point: 51 °F

Location of KleppeLocation

Past Weather in Kleppe — Graph

°F

Kleppe Temperature Yesterday

Maximum temperature yesterday: 60 °F (at 1:00 PM)
Minimum temperature yesterday: 54 °F (at 5:00 AM)
Average temperature yesterday: 56 °F

High & Low Weather Summary for the Past Weeks

 TemperatureHumidityPressure
High69 °F (Jun 23, 2:00 PM)98% (Jun 21, 2:00 AM)30.14 "Hg (Jun 21, 2:00 AM)
Low46 °F (Jun 20, 2:00 AM)41% (Jun 13, 4:00 PM)29.54 "Hg (Jun 15, 6:00 AM)
Average58 °F82%29.83 "Hg
* Reported Jun 13 4:00 PM — Jun 28 4:00 PM, Kleppe, Weather by CustomWeather, © 2016

Note: Actual official high and low records may vary slightly from our data, if they occured in-between our weather recording intervals... More about our weather records

Advertising

Kleppe Weather History for the Previous 24 Hours

Scroll right to see more
 ConditionsComfort  
Time TempWeatherWind HumidityBarometerVisibility
4:00 PM
Tue, Jun 28
61 °FSunny.6 mph72%29.92 "Hg18 mi
3:00 PM62 °FScattered clouds.6 mph72%29.93 "Hg22 mi
2:00 PM62 °FScattered clouds.5 mph69%29.92 "Hg22 mi
1:00 PM58 °FRain showers. Scattered clouds.7 mph73%29.93 "Hg15 mi
12:00 PM60 °FPassing clouds.5 mph61%29.92 "Hg28 mi
11:00 AM58 °FSunny.5 mph68%29.92 "Hg28 mi
10:00 AM58 °FSunny.5 mph69%29.91 "Hg19 mi
9:00 AM57 °FScattered clouds.3 mph76%29.90 "Hg22 mi
8:00 AM57 °FSunny.3 mph82%29.90 "Hg19 mi
7:00 AM53 °FPassing clouds.2 mph89%29.90 "Hg17 mi
6:00 AM50 °FScattered clouds.3 mph92%29.90 "Hg16 mi
5:00 AM50 °FPassing clouds.3 mph90%29.90 "Hg14 mi
3:00 AM54 °FPassing clouds.2 mph81%29.90 "Hg19 mi
2:00 AM54 °FPassing clouds.3 mph79%29.90 "Hg22 mi
1:00 AM55 °FPassing clouds.5 mph80%29.89 "Hg19 mi
12:00 AM54 °FPassing clouds.2 mph82%29.88 "Hg19 mi
11:00 PM
Mon, Jun 27
55 °FPassing clouds.3 mph83%29.87 "Hg18 mi
10:00 PM54 °FPartly sunny.6 mph83%29.85 "Hg16 mi
9:00 PM56 °FScattered clouds.6 mph78%29.84 "Hg19 mi
8:00 PM58 °FRain showers. Passing clouds.6 mph77%29.83 "Hg11 mi
7:00 PM58 °FPartly sunny.7 mph76%29.82 "Hg16 mi
6:00 PM59 °FPassing clouds.6 mph74%29.81 "Hg14 mi
5:00 PM60 °FPassing clouds.7 mph74%29.80 "Hg14 mi
Weather by CustomWeather, © 2016

See weather overviewHow to use our weather pages